Location: Acton
(51.4942°N, 0.2232°W)
Time: 13:32:47
(UTC+00:00)

Okean 1-7 Rocket - Pass Details

Date: 18 January 2021
Orbit: 615 x 650 km, 82.5° (Epoch: 28 February)

Event Time Altitude Azimuth Distance (km) Brightness Sun altitude
Exits shadow 05:53:46 12° 344° (NNW) 1,924 5.8 -18.6°
Maximum altitude 05:57:57 66° 264° (W) 711 3.6 -17.9°
Drops below altitude 10° 06:02:25 10° 182° (S) 2,031 6.3 -17.2°
Sets 06:04:39 0° 180° (S) 2,930 7.2 -16.9°
